Wetbulb
58.40 58.35 58.46 58.59 58.78 58.87 58.86 58.99 59.29 59.48 59.32 59.38 59.62 59.27 59.22 60.67 60.55 62.50 58.83 64.15 66.25 71.82 71.12 68.35 67.86 68.42 70.42 66.93 69.02 68.85 60.54 57.54 58.40 59.40 60.56 64.19 62.82 67.29 68.88 65.70 67.01 68.68 69.62 70.94 72.97
57.73 57.77 58.07 58.06 58.54 58.29 58.47 58.51 58.75 59.08 59.11 59.19 59.66 59.20 58.91 60.57 62.17 60.19 69.45 70.10 71.93 71.35 66.34 63.88 63.62 65.86 65.53 64.27 65.79 63.74 58.27 57.03 59.46 60.85 61.50 62.65 63.21 65.33 66.11 65.16 66.03 67.54 70.33 71.32 72.44
57.34 57.32 57.47 57.69 57.84 57.94 58.06 58.25 58.40 58.51 58.85 58.92 59.92 58.84 59.90 61.28 60.90 59.88 69.88 70.11 70.58 72.66 67.66 62.49 62.80 66.06 62.74 63.54 62.77 61.50 58.15 59.74 59.61 60.99 63.45 62.94 62.78 65.40 63.82 63.68 65.75 66.27 68.16 70.10 70.82
56.75 56.83 57.06 57.23 57.43 57.47 57.61 57.88 57.94 58.07 58.78 59.26 60.20 60.24 60.60 63.67 53.95 66.79 70.22 70.97 71.03 68.34 62.51 60.93 64.76 63.92 62.18 60.07 61.68 59.48 60.05 59.60 59.51 60.56 62.91 62.78 64.32 63.03 64.35 65.47 67.94 68.67 69.55 70.04 69.78
56.21 56.41 56.41 56.63 56.82 56.94 57.22 57.25 57.31 57.80 58.55 59.87 59.96 60.36 62.04 58.77 59.02 69.44 71.54 70.50 64.82 63.73 60.39 59.66 63.71 64.16 61.46 60.70 60.96 59.41 59.95 60.17 60.24 60.27 63.55 64.18 63.39 64.54 65.53 67.08 68.53 68.88 69.17 69.33 69.73
55.75 56.06 56.30 56.39 56.67 56.71 56.47 56.62 56.93 57.51 58.32 59.90 60.27 60.38 62.09 55.70 66.10 65.75 62.47 62.71 62.52 61.29 60.04 60.22 64.41 64.81 62.08 60.54 60.08 60.52 59.94 59.69 60.08 60.54 62.83 62.38 63.03 65.80 66.70 67.75 67.62 67.97 68.07 68.57 69.26
55.67 55.82 55.98 55.83 55.94 56.44 56.03 56.42 56.86 57.65 58.77 60.12 60.64 62.51 61.00 60.11 67.08 68.77 63.53 61.89 62.40 61.63 59.15 62.97 65.31 63.69 62.98 60.52 61.31 60.17 57.74 59.51 59.52 60.45 61.07 62.77 60.55 63.66 67.81 67.46 66.66 67.36 67.93 68.29 69.00
55.70 55.67 55.87 55.83 55.89 55.71 55.44 56.32 57.80 59.17 59.43 60.60 60.88 63.44 59.40 64.83 68.62 67.43 65.42 61.57 61.97 62.37 61.43 62.96 64.93 63.51 62.59 62.94 60.79 57.88 58.45 55.35 58.57 59.78 60.86 61.52 57.46 65.45 68.24 66.85 66.10 66.99 67.19 67.82 68.72
55.28 55.44 55.41 55.31 55.41 55.34 55.10 56.51 59.33 59.93 60.10 61.11 62.86 62.91 57.12 65.94 64.15 65.43 64.38 60.54 60.34 61.02 61.87 63.55 62.87 61.47 61.98 58.49 56.68 57.10 54.27 54.61 55.60 59.32 59.93 60.09 58.80 64.99 67.98 67.03 66.04 67.11 67.36 67.57 68.41
55.03 54.84 54.76 54.86 54.83 54.48 54.36 56.22 60.49 59.95 61.45 63.77 64.72 59.30 62.16 60.95 64.18 63.85 63.46 61.71 58.82 58.73 58.49 59.30 59.50 57.49 57.26 57.07 52.40 53.64 54.76 55.03 54.50 57.06 58.29 58.25 59.49 62.98 66.54 66.78 66.71 67.29 67.89 68.28 68.47
54.80 54.57 54.35 54.43 54.26 53.77 56.43 64.47 63.07 61.82 63.01 58.11 57.64 58.50 60.72 64.33 65.23 62.07 62.01 59.95 59.09 57.75 54.09 57.72 54.83 53.71 56.37 57.97 58.21 57.23 55.54 54.57 56.80 57.65 56.94 57.34 59.65 62.01 64.53 65.60 66.19 67.67 68.34 68.78 69.29
54.33 54.18 54.14 53.81 53.64 53.17 57.67 63.19 60.34 59.93 58.34 62.87 59.14 58.38 63.46 64.11 59.23 59.23 61.37 56.88 56.55 53.29 55.48 56.10 53.37 57.46 58.67 57.86 56.66 56.39 55.26 55.46 56.35 57.45 57.48 56.78 57.93 62.07 63.53 64.53 65.47 66.85 68.60 69.06 69.37
54.00 53.75 53.60 53.13 52.67 57.27 60.42 61.08 63.76 61.43 58.50 59.64 61.16 58.48 60.76 63.02 59.25 57.36 58.63 58.49 55.65 53.40 54.20 54.63 55.29 58.49 58.05 57.27 55.98 56.40 55.68 55.93 54.77 56.27 57.37 56.62 56.17 59.62 62.69 64.35 66.07 66.95 68.54 69.34 69.00
53.62 53.56 53.02 52.03 54.37 58.58 59.01 65.87 61.23 63.52 54.73 56.00 58.45 58.82 59.69 62.02 58.61 61.24 60.34 59.42 57.30 54.33 55.75 55.64 58.83 57.73 57.52 56.11 56.85 55.05 57.44 56.21 55.09 54.56 51.69 56.90 50.55 57.29 60.64 61.83 63.79 65.88 67.26 68.25 68.79
53.40 53.25 52.59 51.35 56.27 56.03 60.81 61.50 61.70 63.32 46.63 56.46 57.82 62.86 60.10 59.20 59.68 59.28 61.71 60.37 56.56 56.05 56.53 54.36 57.52 56.82 56.10 56.09 57.53 55.73 57.57 55.86 55.67 54.49 54.72 55.14 52.27 55.64 59.75 59.59 61.94 63.72 66.39 67.77 69.29
53.00 52.73 52.28 56.99 58.88 58.51 58.55 59.79 62.01 53.17 45.82 53.29 57.57 56.21 56.52 58.22 58.90 60.25 58.98 61.71 60.94 57.07 57.83 57.83 60.56 58.71 57.74 58.39 57.82 58.19 56.37 55.70 55.99 54.96 50.84 54.24 52.80 54.47 56.59 58.58 60.03 63.39 65.34 67.37 68.71
52.34 51.49 51.82 55.74 55.07 58.19 57.81 57.36 52.55 48.59 54.98 52.62 54.00 56.20 55.78 55.53 56.94 58.18 56.90 56.73 55.14 53.57 54.19 56.87 56.25 58.29 59.05 56.44 57.77 56.85 54.69 50.75 49.39 49.49 49.49 55.81 53.58 54.69 58.82 60.97 61.78 61.67 64.03 66.76 68.64
51.52 50.76 55.45 57.02 58.90 58.21 56.43 54.14 48.48 52.59 53.58 55.42 55.16 55.28 53.86 56.16 56.21 56.75 56.40 54.99 57.67 56.66 54.97 52.73 50.92 55.73 57.91 57.12 55.51 55.51 55.56 51.85 47.53 48.49 50.76 55.93 51.83 54.82 61.42 62.54 63.98 64.75 64.86 66.21 67.73
50.29 56.73 56.63 58.15 58.98 57.72 52.67 48.55 50.70 54.01 55.56 53.99 54.87 52.76 53.33 55.31 55.62 55.48 55.82 55.31 56.84 57.55 54.16 53.39 52.91 57.46 57.83 58.49 58.46 55.71 53.79 57.49 53.41 54.12 51.62 53.46 54.84 57.27 61.27 60.55 63.26 64.16 64.38 65.09 67.20
51.92 53.67 55.07 59.18 59.15 55.51 48.96 46.58 52.62 56.41 57.33 55.91 51.99 54.08 52.08 53.59 54.06 54.39 54.73 57.10 56.58 57.96 59.32 56.83 52.95 56.77 56.98 58.39 58.20 57.31 58.31 52.62 52.94 49.03 47.18 51.30 52.00 54.61 57.89 59.17 62.67 64.27 65.11 65.52 67.76
52.50 51.72 57.32 59.28 58.38 51.59 44.94 48.12 51.83 56.90 58.29 55.55 53.98 53.77 54.10 53.66 55.01 54.30 54.22 56.32 57.71 57.51 58.56 57.33 55.73 55.38 57.06 54.99 54.34 54.96 54.86 55.96 55.62 54.16 50.15 48.71 51.55 59.21 58.46 58.90 60.68 64.01 66.29 67.22 68.46
52.17 47.79 58.37 58.98 50.18 49.38 47.01 49.69 50.89 53.81 58.07 57.35 57.07 56.10 55.21 55.35 54.49 54.52 54.06 55.87 58.11 58.39 55.68 57.47 55.56 53.45 54.25 57.62 57.92 57.68 55.95 56.19 52.11 52.30 53.06 52.49 51.78 59.15 59.76 59.51 59.54 61.25 65.23 68.17 69.53
48.97 51.31 57.47 56.80 46.53 47.21 50.10 49.68 51.34 52.31 54.47 56.58 55.18 56.58 57.24 56.07 54.63 55.41 55.51 57.84 58.02 57.27 57.19 57.89 54.12 51.25 53.42 55.40 57.10 55.37 57.32 57.21 57.27 56.63 54.43 50.62 52.59 60.58 60.77 60.46 61.44 61.04 63.39 67.76 70.42
49.22 46.40 51.38 53.29 52.96 50.82 49.67 49.38 49.20 52.41 53.36 55.76 55.74 56.59 56.07 55.41 57.63 56.26 55.53 56.92 58.02 57.38 63.80 60.58 55.64 53.91 50.90 53.96 55.75 53.90 54.86 56.16 56.73 53.46 53.56 53.52 55.87 59.02 59.94 59.32 61.08 62.51 64.27 66.73 70.40
49.22 47.77 52.30 48.05 49.72 50.26 51.90 51.25 48.75 49.17 52.89 55.39 54.56 54.65 55.09 54.04 55.68 55.29 57.17 56.79 56.95 59.23 58.56 57.30 54.00 55.31 55.45 56.63 55.76 55.08 54.28 55.30 54.75 55.50 53.63 54.88 55.52 58.51 60.96 60.81 60.98 63.56 65.41 66.50 69.05
47.85 47.88 51.77 50.38 53.52 52.46 48.52 51.11 49.68 50.40 52.08 51.96 52.94 54.03 55.06 54.96 56.52 55.58 57.17 57.45 56.18 57.51 56.89 57.40 54.94 55.63 53.89 55.68 55.36 54.39 55.67 55.71 55.65 55.79 55.94 56.23 56.03 60.73 61.95 60.93 60.70 62.34 64.05 65.50 66.47
52.26 52.38 49.25 48.27 50.22 50.80 51.14 50.32 51.14 52.26 52.91 53.86 54.34 54.22 53.91 55.71 58.65 60.18 60.41 60.42 59.75 57.57 56.97 56.92 55.22 54.76 51.55 55.11 54.35 51.93 54.88 55.38 55.96 57.07 56.55 54.35 57.76 60.75 58.96 59.58 60.97 61.88 63.00 65.15 66.80
MSLP
1016.77 1016.39 1016.02 1015.62 1015.19 1014.87 1014.37 1014.03 1013.69 1013.60 1013.34 1012.95 1012.75 1012.62 1012.43 1012.21 1011.90 1011.03 1008.54 1007.58 1007.36 1007.52 1007.79 1006.34 1005.81 1004.81 1003.75 1002.35 1001.58 1000.99 999.66 1000.21 1000.46 1000.47 1001.15 1001.56 1002.60 1004.01 1004.89 1005.68 1006.47 1007.12 1008.76 1010.52 1012.51
1016.97 1016.50 1016.04 1015.64 1015.19 1014.80 1014.41 1013.97 1013.65 1013.33 1013.21 1012.90 1012.52 1012.41 1012.29 1012.15 1010.81 1008.51 1007.17 1007.30 1007.62 1007.64 1007.06 1005.63 1004.31 1003.77 1002.20 1001.67 1000.78 999.74 999.59 1000.61 1001.13 1001.48 1001.28 1001.97 1002.67 1003.39 1004.51 1006.16 1007.47 1008.72 1010.17 1010.96 1011.70
1017.16 1016.60 1016.07 1015.63 1015.18 1014.71 1014.31 1013.88 1013.56 1013.25 1012.97 1012.77 1012.34 1012.32 1012.22 1011.90 1009.38 1006.03 1007.02 1007.10 1007.57 1007.62 1006.41 1005.18 1004.41 1003.42 1001.78 1001.23 1000.97 1000.04 1000.08 1000.59 1000.96 1001.71 1001.12 1001.88 1002.71 1002.73 1003.60 1005.35 1007.40 1008.87 1010.24 1011.06 1011.39
1017.36 1016.73 1016.16 1015.63 1015.18 1014.66 1014.22 1013.72 1013.34 1013.16 1012.87 1012.61 1012.29 1012.19 1012.22 1011.13 1007.30 1006.20 1007.07 1007.33 1007.57 1007.04 1005.99 1004.90 1004.05 1002.89 1001.35 1000.90 1001.26 1000.45 1000.99 1001.11 1001.18 1001.64 1001.43 1001.73 1002.45 1003.24 1003.90 1005.61 1007.70 1009.20 1010.24 1010.99 1011.23
1017.46 1016.91 1016.27 1015.64 1015.12 1014.60 1014.09 1013.60 1013.09 1012.89 1012.72 1012.54 1012.32 1012.29 1012.09 1009.02 1005.85 1006.43 1007.13 1007.48 1007.25 1006.80 1005.44 1004.48 1003.59 1002.53 1001.32 1001.33 1001.34 1000.69 1000.94 1001.07 1001.14 1001.79 1001.67 1002.31 1002.67 1004.07 1005.16 1006.69 1008.15 1009.28 1010.25 1010.76 1011.21
1017.56 1016.98 1016.38 1015.69 1015.01 1014.47 1013.88 1013.44 1012.93 1012.65 1012.55 1012.40 1012.32 1012.35 1010.61 1006.72 1005.24 1006.16 1006.26 1006.71 1006.02 1005.63 1004.86 1004.34 1003.33 1003.02 1002.25 1001.78 1001.41 1001.37 1001.34 1001.12 1001.13 1001.83 1002.12 1002.34 1003.31 1004.21 1005.96 1007.20 1008.45 1009.38 1010.01 1010.51 1011.23
1017.64 1017.02 1016.37 1015.72 1014.98 1014.29 1013.67 1013.15 1012.70 1012.39 1012.34 1012.26 1012.22 1011.65 1008.51 1005.48 1005.10 1005.56 1005.88 1005.68 1005.36 1005.05 1004.40 1004.15 1004.03 1003.50 1002.44 1001.72 1001.98 1001.61 1001.20 1000.54 1001.09 1001.52 1001.99 1002.28 1002.91 1004.31 1005.94 1007.17 1008.28 1009.09 1009.84 1010.50 1011.22
1017.64 1016.98 1016.33 1015.61 1014.94 1014.17 1013.51 1012.91 1012.45 1012.09 1012.12 1012.12 1012.12 1010.64 1006.18 1005.19 1005.10 1005.50 1005.37 1005.24 1005.28 1004.97 1004.62 1004.32 1004.43 1003.70 1002.93 1002.20 1001.86 1001.06 1000.40 999.79 1000.77 1001.26 1001.94 1002.16 1002.92 1004.37 1005.80 1006.81 1007.79 1008.75 1009.51 1010.36 1011.07
1017.58 1016.93 1016.21 1015.48 1014.81 1014.13 1013.40 1012.83 1012.31 1012.08 1011.98 1012.00 1011.37 1009.03 1005.22 1006.10 1005.27 1004.78 1004.88 1004.79 1005.14 1005.01 1004.96 1005.04 1004.50 1003.24 1002.21 1001.94 1000.57 1000.20 998.81 999.40 1000.52 1000.73 1001.31 1001.60 1002.63 1004.13 1005.27 1006.35 1007.33 1008.39 1009.19 1009.97 1010.74
1017.48 1016.85 1016.13 1015.37 1014.66 1014.04 1013.36 1012.98 1012.40 1012.25 1011.75 1010.65 1009.14 1007.47 1004.90 1004.02 1003.97 1004.27 1004.57 1004.47 1004.66 1004.66 1004.66 1004.58 1003.56 1002.44 1001.87 1000.49 998.95 998.94 998.42 999.25 999.99 1000.86 1000.88 1000.74 1002.31 1003.80 1004.52 1005.45 1006.68 1007.73 1008.68 1009.39 1010.15
1017.48 1016.71 1015.99 1015.15 1014.46 1013.95 1012.84 1011.82 1011.48 1010.07 1008.63 1005.56 1004.80 1003.68 1003.05 1002.90 1003.78 1004.07 1004.35 1004.41 1004.38 1004.19 1003.56 1003.29 1002.38 1001.16 1000.10 1000.00 999.81 999.04 998.65 999.10 999.60 1000.45 1000.49 1000.26 1001.76 1003.34 1004.01 1004.46 1005.66 1006.76 1007.93 1008.67 1009.42
1017.47 1016.69 1015.78 1014.84 1013.99 1013.49 1012.91 1009.08 1007.49 1007.38 1005.67 1004.34 1003.69 1003.03 1002.89 1003.10 1003.15 1003.41 1004.05 1003.85 1003.60 1003.08 1002.88 1002.31 1001.43 1000.35 1000.03 1000.17 1000.32 1000.00 999.25 998.95 999.99 1000.54 1000.62 1000.35 1001.07 1002.49 1003.45 1003.72 1004.63 1005.66 1006.88 1007.65 1008.46
1017.52 1016.71 1015.73 1014.42 1013.43 1012.40 1009.75 1007.87 1007.35 1006.85 1004.90 1002.08 1002.16 1002.18 1002.45 1002.54 1001.93 1002.50 1003.27 1002.71 1002.65 1002.43 1001.87 1000.91 1000.30 1000.20 1000.49 1000.71 1000.46 999.81 999.06 999.05 999.70 1000.51 1000.55 1000.27 1000.68 1001.65 1002.71 1003.30 1003.78 1004.78 1005.83 1006.51 1007.36
1017.51 1016.80 1015.89 1014.30 1012.91 1010.09 1007.97 1007.37 1007.13 1006.78 1003.90 1000.77 1000.99 1000.89 1001.39 1001.83 1001.29 1001.63 1002.53 1002.01 1001.84 1001.40 1001.02 1000.74 1000.09 1000.39 1000.58 1000.09 1000.15 998.93 999.37 999.67 999.76 1000.13 999.59 1000.15 999.56 1001.03 1001.75 1002.56 1003.17 1003.93 1004.85 1005.60 1006.48
1017.30 1016.77 1015.99 1015.99 1013.00 1009.41 1007.85 1007.50 1007.16 1006.41 1002.02 998.76 999.37 999.16 1000.09 1000.75 999.81 1000.91 1002.04 1001.66 1000.93 1000.77 1000.81 1000.25 999.94 1000.45 1000.25 1000.00 999.87 999.25 999.85 1000.11 1000.08 999.97 999.39 999.66 999.57 999.72 1000.80 1001.57 1002.25 1002.98 1003.78 1004.69 1005.69
1016.99 1016.50 1016.12 1012.29 1012.12 1009.62 1008.58 1007.79 1006.94 1004.86 1000.07 998.64 998.98 999.12 999.46 999.96 999.58 1000.34 1001.40 1001.45 1001.01 1000.78 1000.47 999.45 999.97 1000.10 999.91 999.72 999.79 999.89 1000.38 1000.47 1000.34 999.64 998.98 999.30 999.54 999.12 999.27 999.99 1000.62 1001.34 1002.52 1003.84 1004.87
1016.50 1015.72 1015.91 1014.16 1009.56 1008.78 1008.60 1007.48 1005.29 1001.86 999.04 997.72 998.10 998.39 998.31 998.74 998.97 999.74 1000.48 1000.75 1000.30 1000.17 999.81 999.95 999.78 999.68 999.57 999.42 1000.09 1000.29 1000.04 999.61 999.65 999.24 998.67 998.75 999.35 999.04 999.50 1000.19 1000.63 1000.57 1001.25 1002.69 1004.01
1015.79 1014.48 1012.54 1011.81 1009.63 1009.33 1008.46 1006.72 1002.99 999.71 997.79 997.05 997.11 997.57 997.43 997.71 998.17 999.18 999.64 999.77 999.96 999.50 998.73 999.00 998.95 999.28 999.51 999.26 999.56 999.90 999.14 998.11 998.10 997.99 998.16 999.76 999.54 999.64 1000.00 1000.76 1001.19 1001.62 1001.06 1001.59 1003.06
1015.11 1011.43 1009.75 1009.27 1009.48 1009.40 1007.80 1004.47 1000.92 998.78 997.45 996.87 996.76 996.56 996.92 996.99 997.44 998.23 998.51 998.58 998.79 998.69 998.07 997.72 997.79 998.37 998.94 999.07 998.97 999.30 999.17 998.64 998.17 998.41 998.36 998.63 999.73 999.91 1000.38 1000.68 1001.22 1001.34 1001.28 1001.09 1002.17
1014.81 1011.00 1008.24 1007.45 1008.44 1008.42 1006.55 1002.38 1000.31 999.02 997.47 996.95 996.19 996.15 995.82 996.06 996.46 996.83 997.30 997.53 997.67 998.23 997.89 996.96 997.13 997.34 998.39 998.94 998.87 998.92 999.35 999.21 998.94 998.29 998.65 998.54 999.40 999.45 1000.50 1000.67 1001.12 1001.46 1001.26 1001.34 1001.80
1014.36 1009.46 1006.37 1007.14 1008.00 1006.48 1003.23 1001.52 1000.50 998.57 997.80 997.60 996.47 995.70 995.51 995.31 995.45 995.68 996.27 996.72 997.02 997.24 997.91 997.56 997.38 997.30 998.14 998.71 998.51 999.33 999.13 998.73 998.18 998.46 998.24 998.58 998.95 1000.25 1000.98 1001.48 1001.55 1001.72 1001.81 1001.91 1002.28
1012.47 1008.49 1006.22 1006.98 1006.59 1003.83 1001.88 1001.05 1000.37 998.87 997.69 997.80 997.33 995.97 995.29 995.08 995.01 995.36 995.36 995.76 996.22 996.68 997.10 997.65 997.57 997.07 997.48 998.37 998.66 998.15 998.64 998.99 998.59 999.38 999.54 999.48 999.84 1000.60 1001.30 1001.78 1002.11 1001.93 1002.35 1002.64 1002.82
1011.69 1007.57 1006.05 1006.38 1004.00 1001.95 1001.16 1000.35 999.71 998.51 997.47 997.44 997.41 996.89 996.09 995.27 994.98 994.87 995.31 995.42 995.87 996.44 996.50 997.58 997.58 997.24 997.22 997.87 998.36 998.12 997.99 998.37 998.84 999.01 998.96 999.50 999.91 1000.84 1001.54 1001.87 1002.55 1002.72 1002.62 1003.20 1003.35
1012.18 1007.27 1005.58 1005.39 1004.00 1001.89 1000.28 999.39 998.82 998.54 997.52 997.05 996.94 997.04 996.57 995.82 995.25 994.63 994.72 994.89 995.58 996.44 996.92 997.55 997.38 997.26 996.35 996.94 997.48 998.18 998.21 998.20 998.22 998.54 999.14 999.27 1000.13 1000.92 1001.41 1002.18 1002.78 1003.27 1003.62 1003.71 1004.10
1011.99 1007.27 1004.05 1002.90 1002.86 1002.05 1000.67 998.78 998.35 997.61 997.42 997.39 996.76 996.35 996.07 995.89 995.37 994.86 994.69 994.67 995.87 997.00 997.05 997.53 997.43 997.55 997.03 996.34 996.54 997.06 997.79 997.87 998.49 998.86 998.87 998.79 999.71 1000.40 1001.95 1003.20 1004.01 1004.44 1004.69 1004.78 1004.96
1011.21 1008.22 1005.72 1004.40 1002.78 1001.03 1000.52 999.00 997.62 997.40 996.95 996.99 996.48 996.10 995.95 995.83 995.12 994.60 994.65 994.33 995.70 996.64 997.20 997.40 997.31 997.91 997.12 996.81 996.67 996.35 997.02 997.68 998.18 998.69 999.05 999.40 999.74 1000.96 1002.90 1003.93 1004.46 1004.89 1005.23 1005.50 1005.83
1011.12 1010.34 1009.35 1005.20 1003.26 1001.87 1000.08 999.44 998.20 997.41 996.97 996.60 996.60 996.14 995.75 995.59 995.44 994.83 994.66 994.67 995.49 996.31 997.10 997.09 997.33 997.72 997.19 997.31 996.99 997.00 996.93 997.16 997.58 998.46 999.06 999.37 1000.18 1001.74 1003.09 1004.29 1005.06 1005.42 1005.81 1006.22 1006.67
Wind_Speed
19 19 18 17 16 15 15 15 14 11 9 10 10 8 8 9 11 8 9 2 3 10 5 11 10 12 12 9 12 12 4 9 13 14 16 8 16 16 17 15 14 18 20 21 25
20 20 19 19 17 17 16 15 14 12 9 9 9 8 7 7 11 15 6 9 8 8 11 9 8 6 11 4 6 14 10 8 6 9 4 7 17 14 16 17 20 22 21 19 22
20 20 20 20 19 18 17 16 14 12 10 8 8 5 6 8 10 7 6 11 8 10 14 9 9 10 6 7 1 7 13 5 12 8 2 11 10 4 10 19 16 21 21 18 17
21 21 21 21 20 19 18 17 15 11 9 8 5 5 4 10 7 8 5 9 8 13 12 11 10 13 8 1 0 5 5 5 8 8 1 15 9 17 17 20 21 21 20 18 17
21 21 22 21 21 20 19 18 15 10 8 7 4 4 7 9 9 8 10 8 12 13 13 10 11 9 8 2 5 8 8 3 7 8 10 8 15 16 19 20 21 21 19 18 16
22 22 21 22 21 21 20 17 14 11 7 5 5 4 9 13 9 12 13 13 13 13 11 10 8 7 9 4 10 6 4 3 5 9 7 15 12 19 17 20 20 18 18 17 17
22 22 22 22 23 22 21 18 13 9 6 5 6 7 10 2 1 10 11 13 12 13 9 7 5 11 3 9 2 6 9 10 11 11 7 17 10 19 18 19 19 17 16 16 16
21 22 22 23 22 23 22 17 10 6 5 6 6 11 8 5 3 9 12 11 9 9 9 4 7 12 9 5 11 13 16 12 11 10 10 8 14 17 18 18 18 16 15 15 16
22 22 23 23 22 22 21 16 3 5 4 7 8 10 7 4 11 12 11 13 12 9 5 3 10 14 8 13 14 12 9 18 11 9 12 11 17 16 17 16 16 15 15 15 15
22 23 23 24 23 21 21 10 2 6 7 9 9 9 9 12 13 12 12 10 13 11 10 12 10 12 13 15 10 11 10 14 15 10 11 10 18 14 16 17 16 15 15 15 16
22 23 24 25 24 20 16 6 8 9 12 12 10 9 10 7 12 12 13 13 15 14 15 14 12 13 16 12 9 11 3 8 11 7 8 11 18 15 14 16 16 16 16 15 16
22 24 25 26 25 22 8 10 9 7 10 21 13 18 2 12 13 14 16 15 15 16 17 10 15 15 6 2 5 8 8 9 7 7 10 7 14 17 14 14 17 17 17 16 16
22 23 26 28 28 8 10 13 5 8 9 16 17 16 14 14 12 18 21 19 17 19 18 16 17 13 6 11 11 13 12 11 8 10 12 4 12 15 16 13 16 16 17 17 17
21 23 24 31 8 9 9 3 8 5 8 15 16 15 21 14 14 19 21 15 12 19 16 15 4 9 12 15 16 16 10 5 7 7 13 13 9 17 18 15 15 17 17 16 17
21 21 22 15 13 8 9 8 10 7 9 20 20 12 19 19 12 20 20 16 15 14 11 16 10 15 16 15 12 6 2 6 11 12 17 11 11 18 18 18 19 17 18 18 17
22 21 21 6 11 13 13 11 8 10 13 9 12 18 22 20 13 21 20 18 13 15 17 15 13 16 17 15 7 4 5 6 9 13 12 10 9 15 17 16 16 23 22 19 19
24 24 14 12 7 8 9 9 10 14 9 11 20 22 25 17 21 22 24 22 17 16 16 18 12 13 14 12 8 9 12 9 8 9 8 10 7 7 4 9 6 6 23 22 20
26 30 9 12 10 10 8 10 16 15 19 4 17 22 26 24 22 21 22 22 23 20 15 17 17 22 13 14 11 13 18 10 5 12 10 6 7 4 8 3 3 6 13 22 21
32 11 10 11 14 9 10 17 21 20 17 8 12 18 24 24 22 22 25 24 24 23 21 17 18 22 18 19 17 15 14 12 8 4 6 10 5 3 7 5 2 7 13 15 20
10 10 13 11 10 10 12 23 22 26 17 15 17 16 22 27 25 25 24 24 25 26 20 7 13 20 14 15 15 12 11 8 7 5 6 7 3 4 6 1 5 5 9 14 19
9 7 7 10 10 12 19 25 29 22 16 15 16 17 19 21 25 22 22 18 25 25 21 19 12 19 16 15 15 13 12 11 14 5 6 6 8 11 7 4 4 1 3 5 8
8 10 10 10 12 13 19 28 23 29 22 17 17 18 16 21 24 25 23 23 18 23 25 21 10 13 20 17 20 19 19 16 11 9 8 9 12 14 11 5 2 4 3 6 11
7 10 9 10 13 18 21 26 28 26 26 21 22 15 16 14 19 23 25 21 17 21 23 18 16 14 16 10 10 13 14 18 15 9 5 8 8 9 8 6 2 6 5 6 6
7 7 10 10 14 23 21 26 28 28 26 22 22 22 19 15 16 16 21 19 21 15 10 19 17 19 15 14 16 19 21 18 13 9 11 13 12 12 10 4 4 1 3 8 9
7 9 7 9 16 21 21 22 26 27 27 20 23 25 22 16 19 18 17 19 12 10 12 18 21 20 21 17 20 20 21 16 17 14 14 2 6 12 12 5 3 2 3 4 4
9 5 9 13 14 16 20 25 25 25 24 21 24 25 22 19 17 15 20 17 18 17 16 21 15 19 21 23 9 12 21 20 19 15 13 16 8 16 10 4 3 1 2 1 4
8 7 8 11 15 13 15 23 24 18 26 26 24 20 22 22 16 15 18 13 14 17 18 18 16 16 20 19 15 18 16 15 14 14 16 12 6 11 8 3 3 5 2 0 3
Wind_Direction
1 359 358 356 355 354 348 345 341 338 326 315 311 300 289 295 291 234 252 84 146 162 227 243 236 252 242 248 251 248 38 54 15 45 99 125 90 88 81 85 71 88 111 126 128
358 356 354 354 351 349 346 341 337 332 326 314 308 294 282 298 262 255 157 118 140 182 221 224 237 251 243 226 257 266 79 69 44 62 87 59 91 132 109 96 96 99 108 125 136
356 354 351 350 348 345 343 338 334 328 320 310 300 273 269 279 268 218 128 142 180 205 262 280 281 271 264 278 292 347 61 29 76 28 15 120 96 128 142 116 121 126 130 138 135
355 351 349 346 345 341 339 334 330 324 315 306 291 253 256 237 239 80 162 154 201 223 256 251 243 248 267 171 88 256 93 31 57 100 149 104 132 66 66 93 123 129 135 140 139
353 349 346 344 341 338 335 332 325 320 312 298 258 223 233 215 257 106 138 155 187 215 233 236 251 260 267 359 240 281 79 338 83 104 78 131 92 84 91 109 125 132 140 146 137
350 346 343 341 338 336 333 328 317 308 298 274 222 216 242 241 89 128 165 172 196 213 223 242 273 349 310 306 292 19 329 303 117 125 169 109 136 111 111 124 131 142 145 147 144
347 344 341 339 337 335 332 325 309 293 266 227 214 245 252 337 108 155 173 195 200 219 220 236 289 263 352 244 10 283 255 197 156 156 171 125 159 106 131 136 142 148 150 143 153
345 342 339 336 335 334 333 327 307 267 217 203 217 244 279 112 191 176 187 192 196 223 266 201 254 275 266 355 258 235 223 165 142 181 131 218 106 130 145 146 149 153 152 154 158
343 340 338 335 334 333 330 326 312 182 207 194 220 237 223 140 197 192 193 188 190 204 209 250 249 254 230 245 224 214 221 127 149 211 147 231 119 139 159 152 152 158 158 162 163
340 339 336 333 332 330 324 297 204 195 215 213 272 229 207 207 186 172 191 212 188 194 201 219 230 242 214 230 222 185 212 141 145 172 205 121 113 155 167 159 161 164 166 167 169
339 336 334 330 327 327 313 199 204 194 208 230 175 246 137 127 143 188 180 193 198 198 216 202 222 220 222 230 3 324 194 132 111 130 247 174 136 155 172 168 167 166 171 178 177
337 335 332 328 322 320 272 254 46 343 279 212 244 229 263 168 181 180 181 188 198 203 216 183 231 226 236 74 251 248 248 163 131 153 253 148 152 150 178 188 167 172 172 180 178
336 334 331 324 320 277 265 292 339 315 257 220 203 210 191 205 208 174 190 208 195 207 202 225 205 233 182 198 224 229 232 164 215 180 245 164 164 160 175 191 167 181 173 180 173
334 332 332 328 295 337 266 130 293 299 269 189 196 211 201 205 221 170 201 209 198 209 204 231 174 178 204 224 223 222 206 338 229 199 220 204 226 177 169 188 188 187 179 186 170
329 329 327 323 312 271 23 311 314 241 254 161 169 184 181 197 149 174 193 210 221 215 204 210 193 204 208 226 211 296 123 222 241 229 257 186 270 169 177 183 187 199 187 187 180
322 322 330 277 221 266 302 292 258 231 236 163 139 180 173 202 176 160 187 219 236 215 212 221 203 199 215 220 210 151 224 227 243 253 224 240 230 149 184 194 200 185 184 194 182
317 310 302 294 238 358 309 257 220 237 217 172 178 190 192 188 181 175 188 197 207 207 201 225 202 216 234 181 194 214 206 201 214 220 252 169 191 278 39 76 356 271 178 181 185
313 307 249 231 245 249 252 225 236 211 226 81 187 191 203 189 192 179 190 197 215 210 188 207 201 207 194 212 184 218 232 255 177 216 178 152 235 232 49 73 173 269 259 175 186
309 282 249 227 217 244 235 221 215 239 210 206 209 195 202 204 199 189 203 207 201 218 237 194 226 186 195 222 211 193 243 281 297 248 299 165 172 221 165 233 234 237 234 201 179
308 288 257 207 177 200 225 232 228 232 260 268 223 218 206 207 197 193 200 206 210 212 236 249 214 176 190 216 214 272 214 214 252 245 235 149 147 90 149 183 90 251 219 234 179
263 250 98 141 200 209 221 225 231 243 229 246 246 229 231 207 203 215 210 210 210 201 214 244 250 176 181 207 205 210 244 241 281 249 302 212 131 103 96 11 333 157 201 244 198
282 238 126 175 210 221 223 224 237 228 241 231 270 268 242 221 215 212 214 219 197 218 201 225 208 240 186 210 229 217 205 228 248 185 258 312 106 122 119 108 356 329 89 276 197
262 254 152 211 225 230 218 229 232 239 234 205 234 243 260 256 237 218 227 220 182 220 207 204 234 217 220 167 214 226 235 222 223 264 207 243 118 127 124 129 95 315 311 166 239
272 239 208 207 253 263 234 216 223 231 241 232 230 236 232 243 246 239 215 213 206 209 206 203 214 241 219 201 201 209 234 236 221 204 233 211 146 179 134 66 98 195 249 303 174
244 248 309 213 219 237 256 237 222 217 228 239 236 229 228 224 233 219 232 200 191 152 202 210 224 224 250 245 206 191 218 208 229 240 258 334 238 91 100 73 48 2 322 272 266
290 282 313 256 302 247 225 246 220 221 212 213 238 220 232 221 239 209 234 197 189 181 219 207 215 231 238 243 233 249 189 209 213 233 241 256 267 100 104 165 211 235 295 238 252
272 294 272 282 237 252 237 223 246 230 224 231 222 234 218 230 231 249 221 250 180 194 213 209 219 213 233 229 237 234 245 235 229 220 242 247 250 117 130 87 359 320 227 217 109